Wind_Speed
29 28 29 28 24 22 21 20 19 17 19 18 17 11 12 11 11 13 17 19 18 16 16 14 12 10 10 11 13 15 17 20 25 25 24 23 23 22 22 23 24 24 25 25
30 30 30 28 24 20 17 16 16 17 16 20 13 12 12 12 14 17 19 20 21 20 19 18 17 17 16 19 20 20 19 21 23 22 22 23 23 23 23 23 23 23 24 25
30 30 29 26 21 16 13 14 14 13 12 16 13 12 13 14 17 19 21 23 25 26 25 24 23 22 22 22 24 25 26 26 25 25 25 26 27 26 27 28 29 28 25 24
19 23 25 16 14 11 10 12 11 9 10 12 12 12 14 18 20 21 24 26 27 28 29 28 27 26 27 26 26 27 27 27 27 26 25 23 25 26 26 26 29 29 30 27
7 7 11 9 8 8 9 12 11 9 8 10 12 15 18 20 22 24 25 25 26 28 29 30 29 29 29 29 30 30 29 27 27 28 28 27 27 27 26 25 26 29 30 30
10 8 6 5 5 5 7 8 8 8 9 10 12 14 18 21 23 24 24 26 28 29 29 28 28 28 30 30 30 30 30 29 30 29 27 27 26 26 26 26 24 23 25 29
6 6 5 4 4 5 6 8 7 9 11 12 15 17 21 25 26 24 24 26 27 26 25 25 25 26 28 29 29 29 29 29 30 30 29 27 25 23 24 23 21 23 25 26
7 7 9 8 9 9 10 11 13 13 14 15 17 20 23 25 25 23 23 23 22 21 21 22 24 27 30 31 32 30 29 28 28 29 30 28 28 24 21 21 20 20 20 21
11 11 12 10 10 12 13 14 15 16 15 16 18 21 24 25 23 22 21 19 18 18 19 21 23 26 29 32 35 34 30 28 27 28 28 29 28 27 23 22 23 22 21 20
14 14 13 10 11 15 14 15 17 17 16 16 18 22 25 23 21 20 18 17 17 18 20 22 23 25 26 28 31 32 28 27 26 27 27 27 27 27 26 24 23 23 23 24
15 16 13 12 14 16 15 15 15 16 15 16 19 22 21 19 18 17 16 15 17 19 21 23 25 27 27 22 18 16 13 18 22 23 24 25 26 26 26 25 24 24 24 26
16 17 13 12 16 16 14 14 14 13 13 16 18 18 17 17 16 16 15 15 17 21 24 24 23 24 23 17 8 5 7 12 17 19 19 22 25 25 23 22 22 23 23 24
19 18 14 14 17 13 11 12 11 11 13 15 15 15 15 15 14 14 13 15 19 23 25 22 19 19 18 14 9 4 2 6 11 13 13 15 17 19 19 19 19 19 20 21
24 19 15 14 13 10 10 10 9 11 14 14 14 14 13 12 12 11 12 15 18 21 22 21 17 14 14 13 12 9 7 8 9 9 9 11 12 14 13 13 14 15 16 16
28 20 17 14 13 10 10 10 10 11 12 12 13 12 11 11 10 9 11 13 16 18 20 19 18 13 10 11 11 11 10 9 10 11 11 11 10 9 8 8 10 11 10 9
30 21 18 16 14 10 9 10 9 8 8 10 11 10 9 8 9 10 11 12 14 17 18 18 17 16 12 8 7 8 8 8 9 9 8 8 6 5 4 4 6 7 6 6
28 22 19 17 16 12 9 9 7 5 5 7 8 8 7 7 8 10 11 11 13 16 17 19 18 16 15 11 7 5 4 4 5 4 4 5 5 4 2 2 4 5 5 6
28 22 20 19 16 12 10 9 6 4 3 4 5 6 7 8 8 9 10 11 13 16 18 19 19 17 15 15 12 9 5 1 2 1 3 5 5 4 3 2 1 2 2 3
29 22 20 19 15 12 10 8 6 6 4 4 4 5 7 8 7 8 8 9 11 13 15 18 19 19 18 16 15 14 11 9 7 5 6 6 4 3 2 2 1 1 2 3
29 23 21 19 15 13 10 9 9 8 4 3 3 5 6 6 7 8 10 10 11 12 13 14 16 17 18 18 18 17 15 12 9 7 5 4 2 0 2 3 3 3 2 3
32 26 23 20 17 13 11 11 12 10 6 2 2 4 5 5 6 8 10 12 13 13 13 13 13 13 13 15 16 16 15 14 11 6 3 1 1 2 4 5 5 5 5 5
32 28 24 20 16 14 14 13 13 12 9 4 1 4 6 6 6 7 10 12 13 13 13 13 13 12 12 12 12 13 14 13 11 9 5 3 3 4 6 7 7 7 7 7
32 29 25 21 17 15 16 17 16 15 14 11 6 3 2 2 4 6 10 14 15 14 13 12 11 12 13 12 11 11 11 12 12 10 9 7 6 6 6 6 6 6 7 8
33 29 26 22 17 16 17 19 19 18 17 17 13 9 7 6 6 7 11 14 15 14 13 12 11 12 12 12 12 12 12 13 13 12 13 13 11 9 7 7 7 7 7 8
33 29 26 22 18 16 16 16 17 16 16 17 17 15 15 15 15 14 13 13 14 14 13 12 11 11 12 11 11 11 11 11 12 13 14 14 13 11 9 9 9 9 9 9
33 29 27 22 18 16 15 13 12 11 9 11 13 15 17 18 18 17 15 14 13 12 11 11 10 11 12 12 11 11 12 12 13 13 14 14 14 13 12 11 10 11 12 13
33 31 28 22 18 17 16 14 11 8 6 5 6 7 10 13 14 14 13 12 10 8 8 9 10 10 11 12 12 12 12 13 13 14 15 15 15 15 15 15 14 13 13 13
Wind_Direction
267 267 265 264 266 270 270 275 281 281 283 275 277 267 276 289 301 311 314 315 315 312 307 306 303 291 284 279 266 253 253 252 243 242 250 251 246 240 238 238 239 238 235 236
265 257 254 254 257 262 264 272 279 279 272 271 274 269 272 285 299 304 305 306 305 304 301 299 294 286 276 270 266 263 269 276 271 257 250 246 245 247 247 242 237 235 236 238
259 253 251 250 245 246 259 278 284 283 270 274 279 282 283 291 297 300 299 300 301 302 303 300 293 288 285 276 266 262 261 262 267 269 259 250 246 248 250 249 245 240 241 243
243 237 240 234 221 237 267 285 291 284 272 279 289 294 296 297 299 297 296 297 299 300 300 298 294 287 282 278 274 272 269 265 264 264 260 256 253 251 253 252 245 244 245 243
185 203 195 206 229 253 270 279 281 284 290 297 303 304 304 305 306 305 304 305 303 301 299 296 292 288 284 277 271 270 271 269 265 262 256 252 252 252 251 250 248 247 240 238
156 165 168 200 230 261 279 276 280 296 311 318 323 329 328 327 323 315 310 308 305 302 300 296 293 291 288 284 278 272 269 267 263 260 254 250 248 248 248 249 248 243 242 240
173 182 220 248 271 283 273 278 294 305 308 309 315 319 325 331 327 315 307 306 306 303 301 299 297 293 288 285 281 276 271 265 261 258 254 250 245 244 243 242 241 244 244 240
206 214 242 270 283 276 276 284 288 290 294 297 301 310 320 323 321 314 310 308 308 307 307 306 302 296 289 283 280 275 269 263 258 255 252 249 244 241 237 232 237 243 241 240
239 244 253 270 279 279 281 286 292 301 303 295 298 309 318 320 318 316 314 312 313 314 311 311 308 301 290 281 275 269 264 259 255 251 250 246 241 236 232 228 234 242 246 248
248 253 257 265 275 280 285 289 297 307 308 297 303 312 318 319 317 315 315 319 320 319 323 326 324 320 309 293 279 270 259 253 252 245 244 242 238 234 230 230 235 243 250 256
248 254 258 267 275 280 293 301 304 303 303 305 310 315 319 319 315 317 322 324 324 330 336 337 336 336 330 318 294 273 248 239 241 237 235 237 233 232 232 232 236 246 252 255
249 252 254 259 268 281 303 308 304 305 309 311 313 318 323 322 321 325 327 325 331 340 341 340 341 346 349 351 345 284 236 225 223 224 227 230 229 229 231 235 241 250 255 258
248 252 251 243 257 282 303 303 303 310 317 319 323 328 330 327 329 332 331 332 342 346 345 347 349 355 6 19 25 27 132 186 200 208 216 218 220 221 226 232 240 248 257 262
248 251 232 236 259 278 294 298 299 311 324 328 332 332 331 329 335 338 342 346 349 352 358 0 360 4 15 29 43 51 76 116 148 170 182 192 197 205 216 231 245 256 261 263
242 236 221 228 248 264 287 296 298 314 325 329 333 333 328 329 340 345 351 354 0 6 10 12 13 13 19 35 50 61 73 99 124 141 152 161 176 195 218 239 248 248 250 257
236 221 208 222 241 259 284 297 300 310 318 328 333 335 335 337 348 358 358 2 9 13 15 16 16 20 24 39 56 66 77 92 111 126 146 158 173 193 221 243 235 233 236 250
227 212 210 225 239 250 274 292 294 295 310 329 341 345 349 360 8 14 16 19 19 17 15 17 20 22 29 37 49 60 72 95 106 109 150 170 170 175 192 213 218 224 233 245
221 206 212 225 235 245 264 282 274 251 281 323 336 350 355 359 5 14 25 31 30 26 24 24 27 29 28 32 36 37 44 141 198 233 173 178 171 167 168 172 191 214 216 218
219 208 212 223 230 241 258 263 238 224 253 323 340 357 4 3 2 9 14 15 16 18 22 26 29 31 32 34 39 42 51 72 90 115 143 154 162 184 212 241 245 224 197 178
213 211 217 220 225 235 246 236 217 213 234 323 359 18 20 22 25 24 17 8 3 4 9 16 22 26 31 36 41 46 53 64 84 108 122 134 152 227 308 308 303 291 256 217
217 215 215 217 221 227 228 221 212 208 219 270 0 24 39 33 21 17 15 13 13 11 11 14 18 23 28 34 39 44 48 53 59 72 96 112 328 331 337 335 325 315 300 278
213 212 214 215 215 216 214 215 216 215 215 211 164 83 64 51 38 31 28 24 23 21 16 15 18 23 26 28 32 36 40 43 46 49 48 30 348 325 325 327 325 318 311 301
209 212 214 213 211 211 210 213 218 223 221 216 209 178 123 57 31 26 25 23 23 21 19 19 20 21 21 21 23 27 30 31 31 32 30 22 10 357 348 339 331 323 317 311
206 209 211 210 210 211 215 217 221 228 232 228 227 231 243 260 287 324 348 360 7 13 17 22 23 23 22 23 22 21 20 19 20 21 17 11 3 353 345 339 333 330 326 320
204 207 209 209 212 216 220 221 221 227 237 232 230 237 248 260 273 290 313 331 343 358 12 21 26 28 29 28 26 23 19 16 15 11 7 6 4 358 347 338 333 329 329 326
204 207 207 211 216 214 214 212 206 210 224 227 229 238 248 256 266 276 289 305 322 340 2 17 25 27 26 24 22 22 18 15 13 10 8 7 5 2 355 343 326 318 321 327
205 206 205 210 211 207 204 202 198 200 206 209 216 233 245 252 259 268 277 288 300 318 347 11 19 22 20 19 19 20 19 18 14 9 5 5 5 2 359 357 352 343 335 334
Height
5803 5803 5803 5803 5804 5803 5801 5800 5799 5798 5795 5795 5794 5794 5792 5790 5788 5786 5785 5781 5779 5778 5776 5774 5773 5771 5770 5770 5768 5768 5768 5767 5768 5768 5767 5768 5770 5771 5774 5775 5777 5779 5781 5783
5795 5795 5794 5795 5797 5797 5795 5795 5794 5793 5792 5789 5789 5790 5788 5787 5784 5782 5779 5776 5774 5772 5771 5769 5768 5767 5766 5766 5765 5764 5764 5763 5761 5759 5760 5762 5763 5765 5767 5769 5771 5773 5775 5776
5785 5785 5786 5788 5791 5791 5790 5789 5790 5789 5789 5786 5785 5785 5784 5782 5780 5777 5774 5770 5768 5766 5764 5762 5761 5760 5758 5757 5757 5756 5755 5755 5754 5753 5754 5755 5756 5758 5760 5762 5764 5767 5768 5769
5777 5777 5779 5784 5785 5786 5786 5786 5786 5785 5783 5782 5782 5780 5779 5777 5774 5772 5768 5765 5762 5759 5756 5754 5752 5751 5750 5749 5748 5747 5746 5746 5745 5746 5747 5748 5749 5751 5753 5754 5756 5758 5761 5763
5775 5775 5778 5780 5781 5781 5782 5782 5782 5781 5780 5779 5778 5776 5773 5771 5768 5765 5762 5758 5755 5751 5748 5745 5743 5741 5740 5739 5738 5737 5737 5738 5738 5738 5739 5741 5743 5744 5746 5747 5748 5750 5752 5755
5773 5775 5776 5779 5779 5779 5781 5780 5779 5777 5777 5775 5774 5772 5769 5765 5762 5758 5755 5751 5748 5744 5741 5737 5734 5732 5730 5728 5728 5727 5727 5729 5729 5730 5731 5732 5734 5737 5738 5739 5741 5743 5744 5747
5773 5773 5774 5776 5776 5777 5779 5778 5776 5774 5773 5772 5770 5768 5765 5761 5756 5753 5749 5745 5741 5738 5734 5731 5728 5725 5722 5719 5718 5717 5717 5718 5718 5720 5721 5724 5726 5728 5730 5733 5735 5737 5738 5739
5771 5771 5774 5773 5773 5774 5774 5773 5772 5771 5770 5768 5766 5763 5760 5756 5751 5747 5743 5740 5736 5732 5728 5725 5722 5718 5714 5710 5708 5706 5706 5707 5708 5710 5712 5715 5718 5720 5723 5726 5729 5731 5732 5734
5769 5771 5770 5770 5770 5769 5769 5769 5768 5767 5766 5763 5761 5758 5755 5750 5746 5742 5738 5734 5730 5727 5724 5719 5714 5709 5703 5699 5696 5694 5695 5696 5698 5700 5703 5706 5710 5713 5717 5720 5723 5725 5727 5729
5764 5765 5766 5766 5766 5765 5765 5765 5764 5762 5760 5758 5756 5753 5749 5745 5741 5737 5733 5730 5727 5724 5718 5712 5706 5699 5692 5686 5681 5680 5682 5685 5688 5692 5695 5699 5702 5707 5711 5715 5717 5720 5722 5723
5760 5760 5761 5762 5762 5761 5761 5761 5759 5758 5756 5754 5751 5748 5744 5740 5737 5733 5730 5727 5724 5719 5713 5707 5700 5693 5685 5676 5671 5669 5671 5675 5680 5684 5688 5692 5696 5701 5706 5710 5713 5714 5716 5717
5755 5756 5757 5758 5757 5757 5758 5756 5755 5753 5752 5749 5746 5743 5740 5737 5734 5730 5727 5725 5721 5715 5709 5702 5697 5690 5682 5674 5669 5668 5668 5671 5676 5680 5683 5687 5692 5697 5701 5705 5707 5708 5709 5710
5748 5749 5752 5753 5753 5754 5754 5753 5751 5750 5749 5746 5742 5739 5737 5734 5731 5728 5725 5722 5718 5712 5706 5700 5694 5689 5683 5676 5672 5671 5670 5671 5674 5678 5682 5686 5689 5694 5697 5700 5701 5702 5702 5702
5741 5743 5746 5748 5750 5750 5750 5749 5748 5747 5745 5742 5739 5736 5734 5732 5729 5727 5723 5720 5716 5711 5705 5698 5693 5689 5685 5680 5676 5674 5674 5673 5675 5678 5682 5685 5688 5691 5693 5695 5696 5696 5696 5695
5734 5738 5741 5744 5745 5746 5746 5745 5745 5743 5742 5739 5737 5734 5732 5731 5728 5725 5722 5718 5715 5710 5704 5699 5694 5690 5686 5683 5681 5679 5678 5678 5679 5681 5683 5686 5688 5690 5691 5692 5692 5692 5692 5692
5728 5733 5737 5740 5741 5741 5742 5742 5741 5741 5739 5737 5735 5733 5731 5729 5727 5723 5720 5717 5714 5710 5706 5701 5696 5692 5687 5685 5684 5683 5682 5682 5683 5684 5685 5687 5688 5689 5689 5688 5688 5688 5689 5689
5723 5729 5732 5735 5737 5737 5738 5738 5739 5739 5737 5735 5733 5732 5730 5728 5725 5722 5719 5717 5714 5711 5707 5703 5698 5694 5690 5687 5685 5684 5684 5684 5685 5686 5686 5687 5687 5688 5687 5687 5687 5687 5687 5687
5718 5724 5728 5730 5732 5733 5735 5735 5736 5736 5735 5733 5732 5731 5729 5727 5725 5723 5720 5717 5715 5712 5709 5704 5700 5695 5692 5689 5686 5684 5683 5683 5685 5685 5685 5686 5687 5687 5688 5687 5687 5686 5686 5686
5714 5720 5723 5726 5728 5730 5731 5732 5733 5734 5733 5732 5731 5730 5729 5727 5725 5722 5720 5718 5715 5713 5710 5706 5702 5698 5695 5691 5688 5685 5684 5683 5684 5685 5686 5687 5688 5689 5688 5688 5687 5687 5687 5686
5710 5715 5719 5722 5724 5726 5728 5729 5730 5731 5732 5731 5730 5729 5728 5727 5725 5723 5720 5718 5715 5712 5710 5708 5704 5701 5698 5695 5692 5689 5687 5686 5686 5687 5688 5689 5689 5689 5689 5689 5688 5687 5687 5687
5705 5710 5714 5718 5720 5723 5725 5726 5728 5729 5730 5730 5730 5729 5728 5727 5726 5723 5721 5718 5715 5712 5710 5708 5705 5703 5701 5698 5696 5693 5691 5689 5689 5689 5689 5690 5690 5690 5690 5689 5688 5687 5687 5687
5699 5704 5709 5713 5717 5719 5721 5723 5724 5726 5728 5728 5729 5728 5728 5727 5725 5724 5722 5719 5716 5713 5711 5709 5706 5705 5703 5701 5699 5697 5694 5693 5691 5691 5690 5690 5690 5689 5689 5688 5687 5687 5686 5686
5694 5699 5704 5709 5712 5715 5717 5719 5721 5723 5725 5726 5727 5728 5728 5727 5726 5724 5722 5721 5718 5715 5712 5709 5707 5705 5704 5702 5701 5699 5697 5695 5693 5692 5691 5690 5689 5688 5687 5686 5685 5685 5684 5683
5689 5695 5700 5704 5708 5711 5713 5715 5718 5720 5721 5722 5725 5726 5726 5725 5725 5724 5723 5721 5719 5716 5713 5710 5708 5707 5705 5704 5702 5700 5698 5697 5695 5694 5693 5691 5689 5688 5686 5685 5684 5683 5682 5681
5685 5690 5695 5699 5703 5706 5709 5711 5714 5716 5717 5719 5721 5723 5723 5723 5723 5723 5723 5721 5719 5717 5715 5712 5710 5708 5707 5704 5702 5701 5699 5698 5696 5695 5693 5691 5689 5687 5685 5684 5683 5681 5680 5679
5680 5686 5691 5695 5699 5703 5706 5708 5710 5712 5714 5715 5717 5719 5719 5720 5720 5721 5721 5720 5719 5718 5716 5713 5711 5710 5708 5705 5703 5702 5700 5698 5696 5695 5693 5691 5689 5687 5685 5683 5681 5679 5678 5676
5675 5681 5687 5692 5696 5699 5703 5706 5708 5710 5711 5713 5714 5715 5715 5716 5717 5717 5717 5718 5718 5717 5716 5714 5713 5711 5709 5706 5704 5703 5701 5699 5698 5695 5693 5691 5688 5686 5683 5681 5678 5676 5674 5673